Copper Harbor, MI

8:10 PM EST on February 22, 2017 (GMT -0500)
Copper Harbor

Weather History for KP59 - September, 2012

Change the Weather History Date:

Thursday, September 20, 2012

  Actual Average Record
Temperature  
Mean Temperature 52 °F -  
Max Temperature 57 °F 59 °F 75 °F (2004)
Min Temperature 46 °F 46 °F 3 °F (1996)
Degree Days  
Heating Degree Days 12    
Growing Degree Days 2 (Base 50)    
Moisture  
Dew Point 47 °F    
Average Humidity 82    
Maximum Humidity 97    
Minimum Humidity 64    
Precipitation  
Precipitation 0.50 in - - ()
Sea Level Pressure  
Sea Level Pressure 29.64 in    
Wind  
Wind Speed 11 mph (NNW)    
Max Wind Speed 26 mph    
Max Gust Speed 33 mph    
Averages and records for this station are not official NWS values.
T = Trace of Precipitation, MM = Missing Value Source: NWS Daily Summary

Daily Weather History Graph

Daily Weather History Graph

Search for Another Location

Airport or City:

Trip Planner

Search our weather history database for the weather conditions in past years. The results will help you decide how hot, cold, wet, or windy it might be!

Date:

Astronomy

Sep. 20, 2012 Rise Set
Actual Time 7:36 AM EDT 7:52 PM EDT
Civil Twilight 7:05 AM EDT 8:23 PM EDT
Nautical Twilight 6:29 AM EDT 8:59 PM EDT
Astronomical Twilight 5:51 AM EDT 9:36 PM EDT
Moon 1:18 PM EDT (9/20) 10:28 PM EDT (9/20)
Length of Visible Light 13h 17m
Length of Day
12h 16m
Waxing Crescent, 26% of the Moon is Illuminated
Sep 20
Waxing Crescent
Sep 22
First Quarter
Sep 29
Full
Oct 8
Last Quarter
Oct 15
New

Hourly Weather History & Observations

Time (EDT) Temp. Dew Point Humidity Pressure Visibility Wind Dir Wind Speed Gust Speed Precip Events Conditions
12:51 AM 52.0 °F 51.1 °F 97% 29.56 in - Variable 5.8 mph - 0.11 in   Unknown
1:51 AM 53.1 °F 48.9 °F 86% 29.53 in - Variable 5.8 mph - 0.11 in   Unknown
2:51 AM 53.1 °F 48.9 °F 86% 29.53 in - West 5.8 mph - N/A   Unknown
3:51 AM 52.0 °F 48.9 °F 89% 29.52 in - Variable 6.9 mph - N/A   Unknown
4:51 AM 51.1 °F 48.9 °F 92% 29.52 in - West 4.6 mph - 0.01 in   Unknown
5:51 AM 51.1 °F 48.9 °F 92% 29.52 in - Variable 3.5 mph - N/A   Unknown
6:51 AM 51.1 °F 48.0 °F 89% 29.52 in - WNW 8.1 mph - 0.01 in   Unknown
7:51 AM 52.0 °F 46.9 °F 83% 29.55 in - NNW 12.7 mph 19.6 mph N/A   Unknown
8:51 AM 50.0 °F 48.0 °F 93% 29.57 in - NNW 12.7 mph 25.3 mph 0.02 in   Unknown
9:51 AM 52.0 °F 46.9 °F 83% 29.58 in - North 20.7 mph 32.2 mph N/A   Unknown
10:51 AM 53.1 °F 46.9 °F 80% 29.60 in - North 26.5 mph 33.4 mph N/A   Unknown
11:51 AM 51.1 °F 46.9 °F 86% 29.62 in - NNW 19.6 mph 32.2 mph N/A   Unknown
12:51 PM 53.1 °F 46.9 °F 80% 29.64 in - North 20.7 mph - 0.01 in   Unknown
1:51 PM 53.1 °F 46.0 °F 77% 29.66 in - North 24.2 mph - N/A   Unknown
2:51 PM 53.1 °F 45.0 °F 74% 29.68 in - North 26.5 mph 29.9 mph N/A   Unknown
3:51 PM 54.0 °F 45.0 °F 72% 29.69 in - North 23.0 mph - N/A   Unknown
4:51 PM 55.0 °F 44.1 °F 67% 29.70 in - North 17.3 mph - N/A   Unknown
5:51 PM 55.0 °F 43.0 °F 64% 29.71 in - NNW 9.2 mph 18.4 mph N/A   Unknown
6:51 PM 50.0 °F 46.0 °F 86% 29.73 in - WNW 4.6 mph - 0.17 in   Unknown
7:51 PM 52.0 °F 46.9 °F 83% 29.74 in - North 20.7 mph 29.9 mph 0.03 in   Unknown
7:59 PM 51.8 °F 44.6 °F 76% 29.74 in - North 17.3 mph - N/A   Unknown
8:51 PM 50.0 °F 46.0 °F 86% 29.76 in - Variable 4.6 mph - N/A   Unknown
9:51 PM 54.0 °F 43.0 °F 66% 29.76 in - NE 8.1 mph - 0.01 in   Unknown
10:51 PM 50.0 °F 45.0 °F 83% 29.75 in - Variable 5.8 mph - 0.02 in   Unknown
11:51 PM 46.9 °F 44.1 °F 90% 29.75 in - Variable 3.5 mph - N/A   Unknown